Flag for Russia Weather past 2 weeks in Sochi, Russia

Now
66 °F

Sprinkles. Overcast.


Feels Like: 66 °F
Forecast: 55 / 67 °F
Wind: 10 mph from Southwest

Location: Adler

Current Time: Sep 24, 2014 at 5:16:13 AM

Latest Report: Sep 24, 2014 at 4:30 AM


Visibility: 6 mi

Pressure: 29.65 "Hg

Humidity: 73%

Dew point: 57 °F

Location of SochiLocation

Historic Weather in Sochi — Graph

°F

Sochi temperature yesterday

Maximum temperature yesterday: 82 °F (at 10:00 PM)
Minimum temperature yesterday: 59 °F (at 7:00 AM)
Average temperature yesterday: 69 °F

Past Weeks' High & Low Weather Summary

 TemperatureHumidityPressure
High82 °F (Sep 23, 10:00 PM)94% (Sep 10, 1:00 AM)30.01 "Hg (Sep 10, 1:00 AM)
Low59 °F (Sep 23, 7:00 AM)23% (Sep 23, 10:00 PM)29.50 "Hg (Sep 24, 12:00 AM)
Average69 °F76%29.89 "Hg
* Reported Sep 9 4:00 AM — Sep 24 4:00 AM, Sochi, Weather by CustomWeather, © 2014

Note: Actual official high and low records may vary slightly from our data, if they occured in-between our weather recording intervals... More about our weather records

Advertising

Sochi weather history for previous 24 hours

 ConditionsComfort  
Time TempWeatherWind HumidityBarometerVisibility
4:00 AM
Sep 24
64 °FThundershowers. Mostly cloudy.6 mph94%29.65 "Hg2 mi
3:30 AM63 °FThundershowers. Mostly cloudy.13 mph94%29.59 "Hg2 mi
3:00 AM64 °FThundershowers. Overcast.6 mph88%29.59 "Hg2 mi
2:30 AM64 °FThundershowers. Mostly cloudy.13 mph88%29.56 "HgN/A
2:00 AM70 °FSprinkles. Mostly cloudy.17 mph73%29.59 "Hg6 mi
1:30 AM81 °FSprinkles. Mostly cloudy.10 mph37%29.53 "HgN/A
1:00 AM79 °FSprinkles. Mostly cloudy.8 mph42%29.53 "HgN/A
12:30 AM70 °FMostly cloudy.3 mph64%29.50 "HgN/A
12:00 AM70 °FMostly cloudy.6 mph64%29.50 "HgN/A
11:30 PM
Sep 23
70 °FMostly cloudy.8 mph64%29.53 "HgN/A
11:00 PM77 °FMostly cloudy.8 mph42%29.53 "HgN/A
10:30 PM79 °FSprinkles. Mostly cloudy.10 mph34%29.56 "HgN/A
10:00 PM82 °FMostly cloudy.20 mph23%29.56 "HgN/A
9:30 PM81 °FMostly cloudy.13 mph30%29.59 "HgN/A
9:00 PM72 °FMostly cloudy.6 mph65%29.59 "HgN/A
8:30 PM75 °FPassing clouds.8 mph54%29.62 "HgN/A
8:00 PM75 °FBroken clouds.6 mph57%29.62 "HgN/A
7:30 PM77 °FBroken clouds.15 mph54%29.62 "HgN/A
7:00 PM77 °FBroken clouds.15 mph54%29.62 "HgN/A
6:30 PM77 °FPartly sunny.10 mph57%29.65 "HgN/A
6:00 PM77 °FPartly sunny.8 mph57%29.65 "HgN/A
5:30 PM77 °FPartly sunny.10 mph57%29.68 "HgN/A
5:00 PM77 °FScattered clouds.10 mph57%29.68 "HgN/A
4:30 PM77 °FScattered clouds.13 mph57%29.68 "HgN/A
4:00 PM77 °FPassing clouds.10 mph54%29.71 "HgN/A
3:30 PM77 °FScattered clouds.10 mph57%29.71 "HgN/A
3:00 PM77 °FPartly sunny.10 mph57%29.71 "HgN/A
2:30 PM75 °FPartly sunny.10 mph65%29.74 "HgN/A
2:00 PM75 °FPartly sunny.10 mph65%29.77 "HgN/A
1:30 PM75 °FPartly sunny.10 mph65%29.77 "HgN/A
1:00 PM73 °FScattered clouds.10 mph65%29.77 "HgN/A
12:30 PM75 °FScattered clouds.10 mph61%29.77 "HgN/A
12:00 PM73 °FScattered clouds.10 mph65%29.77 "HgN/A
11:30 AM73 °FScattered clouds.8 mph61%29.80 "HgN/A
11:00 AM73 °FPassing clouds.6 mph57%29.80 "HgN/A
10:30 AM70 °FPassing clouds.6 mph60%29.80 "HgN/A
10:00 AM66 °FPassing clouds.10 mph64%29.80 "HgN/A
9:30 AM66 °FPassing clouds.13 mph64%29.80 "HgN/A
9:00 AM64 °FPassing clouds.13 mph68%29.80 "HgN/A
8:30 AM63 °FPassing clouds.13 mph73%29.80 "HgN/A
8:00 AM61 °FPassing clouds.13 mph77%29.80 "HgN/A
7:30 AM59 °FPassing clouds.10 mph82%29.80 "HgN/A
7:00 AM59 °FPassing clouds.13 mph77%29.80 "HgN/A
6:30 AM61 °FPassing clouds.13 mph77%29.83 "HgN/A
6:00 AM61 °FPassing clouds.13 mph77%29.83 "HgN/A
5:30 AM61 °FPassing clouds.10 mph77%29.83 "HgN/A
5:00 AM61 °FPassing clouds.10 mph77%29.83 "HgN/A
Weather by CustomWeather, © 2014

See weather overviewHow to use our weather pages